Simultaneous Nadir Overpasses (SNOs) Predictions

Prediction of SNOs between METOP-A and TERRA Satellite Orbit:

Table of predicted SNOs for the next 14.0 days since TLE Epoch: 2/24/2018
Index Date (METOP-A) Time (METOP-A) Lat,Lon (METOP-A) SZA (METOP-A ) Date (TERRA) Time (TERRA) Lat,Lon (TERRA) SZA (TERRA ) Distance(km) Time Diff (sec)
1 02/25/2018 04:49:30 81.40, 156.81 93.05 02/25/2018 04:49:35 81.40, 156.71 93.04 1.76 5
2 02/25/2018 05:40:10 -81.40, -35.71 86.95 02/25/2018 05:39:02 -81.39, -35.74 86.99 0.84 68
3 02/28/2018 00:23:47 81.40,-136.69 92.02 02/28/2018 00:23:51 81.40,-136.72 92.03 0.80 4
4 02/28/2018 01:14:27 -81.40, 30.81 87.98 02/28/2018 01:13:18 -81.40, 30.87 88.00 0.92 69
5 03/02/2018 19:58:06 81.40, -70.60 90.94 03/02/2018 19:58:10 81.40, -70.44 90.96 2.70 4
6 03/02/2018 20:48:45 -81.40, 97.33 89.01 03/02/2018 20:47:37 -81.39, 97.18 89.06 2.51 68
7 03/05/2018 15:32:24 81.40, -4.13 89.88 03/05/2018 15:32:30 81.39, -4.07 89.89 1.05 6
8 03/05/2018 16:23:04 -81.40, 163.44 90.11 03/05/2018 16:21:57 -81.39, 163.59 90.13 2.44 67
9 03/08/2018 11:06:41 81.40, 62.34 88.82 03/08/2018 11:06:50 81.40, 62.40 88.83 1.08 9




NCC Satellite Simultaneous Nadir Overpasses (SNOs) Prediction Service
